S-NET D

Last updated on Tue Sep 22 2026 00:03:30 GMT+0000 (Coordinated Universal Time)

1 43186U 18014G 26263.70625347 .00002972 00000+0 15191-3 0 9998 2 43186 97.5248 167.8931 0009515 54.7416 305.4706 15.17418514473243
UTC large
Height (km)
Speed (km/s)
/
Latitude / Longitude
Inclination (degrees)
Orbital Period (minutes)
Azimuth
Elevation
Range (km)
Doppler Factor

Next 0 passes for location: London (51.5072 / 0.1276)

No passes found over London.
S-NET D